Time,TemperatureF,DewpointF,PressureIn,WindDirection,WindDirectionDegrees,WindSpeedMPH,WindSpeedGustMPH,Humidity,HourlyPrecipIn,Conditions,Clouds,dailyrainin,SoftwareType,DateUTC
2013-07-06 00:02:00,63.2,62.0,30.21,SSW,195,0.0,1.0,94,0.00,,,0.00,weatherlink.com 1.10,2013-07-06 04:02:00,
2013-07-06 00:17:00,63.1,62.0,30.21,SSW,195,0.0,2.0,95,0.02,,,0.02,weatherlink.com 1.10,2013-07-06 04:17:00,
2013-07-06 00:32:00,62.9,62.0,30.21,SSW,195,0.0,0.0,96,0.04,,,0.04,weatherlink.com 1.10,2013-07-06 04:32:00,
2013-07-06 00:47:00,62.7,62.0,30.21,SSW,195,0.0,0.0,97,0.07,,,0.07,weatherlink.com 1.10,2013-07-06 04:47:00,
2013-07-06 01:02:00,62.6,62.0,30.20,SSW,195,0.0,0.0,97,0.07,,,0.07,weatherlink.com 1.10,2013-07-06 05:02:00,
2013-07-06 01:17:00,62.5,62.0,30.20,SSW,195,0.0,0.0,97,0.06,,,0.08,weatherlink.com 1.10,2013-07-06 05:17:00,
2013-07-06 01:32:00,62.5,62.0,30.20,SSW,195,0.0,0.0,97,0.05,,,0.09,weatherlink.com 1.10,2013-07-06 05:32:00,
2013-07-06 01:47:00,62.5,62.0,30.20,SSW,195,0.0,0.0,98,0.03,,,0.10,weatherlink.com 1.10,2013-07-06 05:47:00,
2013-07-06 02:02:00,62.5,62.0,30.20,ENE,64,0.0,4.0,98,0.11,,,0.18,weatherlink.com 1.10,2013-07-06 06:02:00,
2013-07-06 02:17:00,62.5,62.0,30.20,NE,41,0.0,3.0,98,0.17,,,0.25,weatherlink.com 1.10,2013-07-06 06:17:00,
2013-07-06 02:32:00,62.5,62.0,30.18,ENE,58,2.0,4.0,98,0.19,,,0.28,weatherlink.com 1.10,2013-07-06 06:32:00,
2013-07-06 02:48:00,62.4,62.0,30.18,NNE,19,3.0,5.0,97,0.18,,,0.28,weatherlink.com 1.10,2013-07-06 06:48:00,
2013-07-06 03:02:00,62.3,61.0,30.18,NNE,23,4.0,4.0,96,0.10,,,0.28,weatherlink.com 1.10,2013-07-06 07:02:00,
2013-07-06 03:18:00,62.1,61.0,30.17,NE,44,4.0,5.0,96,0.03,,,0.28,weatherlink.com 1.10,2013-07-06 07:18:00,
2013-07-06 03:32:00,62.0,61.0,30.17,NE,43,2.0,5.0,97,0.00,,,0.28,weatherlink.com 1.10,2013-07-06 07:32:00,
2013-07-06 03:47:00,62.5,61.0,30.17,NE,53,3.0,5.0,95,0.00,,,0.28,weatherlink.com 1.10,2013-07-06 07:47:00,
2013-07-06 04:02:00,62.7,62.0,30.18,North,9,0.0,4.0,96,0.00,,,0.28,weatherlink.com 1.10,2013-07-06 08:02:00,
2013-07-06 04:17:00,63.1,62.0,30.18,North,356,1.0,5.0,95,0.00,,,0.28,weatherlink.com 1.10,2013-07-06 08:17:00,
2013-07-06 04:33:00,63.7,62.0,30.17,NNE,29,3.0,3.0,93,0.00,,,0.28,weatherlink.com 1.10,2013-07-06 08:33:00,
2013-07-06 04:47:00,64.3,62.0,30.17,NNE,25,1.0,5.0,92,0.00,,,0.28,weatherlink.com 1.10,2013-07-06 08:47:00,
2013-07-06 05:02:00,64.1,62.0,30.17,NNE,18,4.0,5.0,93,0.00,,,0.28,weatherlink.com 1.10,2013-07-06 09:02:00,
2013-07-06 05:17:00,64.3,62.0,30.16,ENE,63,3.0,5.0,92,0.00,,,0.28,weatherlink.com 1.10,2013-07-06 09:17:00,
2013-07-06 05:33:00,64.0,62.0,30.17,NNE,24,0.0,4.0,94,0.00,,,0.28,weatherlink.com 1.10,2013-07-06 09:33:00,
2013-07-06 05:47:00,63.4,62.0,30.17,NNE,23,1.0,3.0,95,0.00,,,0.28,weatherlink.com 1.10,2013-07-06 09:47:00,
2013-07-06 06:02:00,63.0,62.0,30.17,NE,36,2.0,4.0,96,0.00,,,0.28,weatherlink.com 1.10,2013-07-06 10:02:00,
2013-07-06 06:18:00,62.8,62.0,30.17,NE,34,0.0,3.0,97,0.00,,,0.28,weatherlink.com 1.10,2013-07-06 10:18:00,
2013-07-06 06:32:00,62.6,62.0,30.17,NE,34,0.0,1.0,98,0.01,,,0.29,weatherlink.com 1.10,2013-07-06 10:32:00,
2013-07-06 06:47:00,62.7,62.0,30.18,NE,43,0.0,3.0,98,0.01,,,0.29,weatherlink.com 1.10,2013-07-06 10:47:00,
2013-07-06 07:02:00,62.9,62.0,30.18,South,190,1.0,7.0,98,0.01,,,0.29,weatherlink.com 1.10,2013-07-06 11:02:00,
2013-07-06 07:18:00,63.2,62.0,30.18,West,264,1.0,8.0,97,0.01,,,0.29,weatherlink.com 1.10,2013-07-06 11:18:00,
2013-07-06 07:33:00,64.0,63.0,30.18,NNE,21,0.0,5.0,95,0.00,,,0.29,weatherlink.com 1.10,2013-07-06 11:33:00,
2013-07-06 07:48:00,63.8,62.0,30.19,NW,311,1.0,5.0,95,0.00,,,0.29,weatherlink.com 1.10,2013-07-06 11:48:00,
2013-07-06 08:03:00,64.0,62.0,30.19,North,8,0.0,3.0,94,0.00,,,0.29,weatherlink.com 1.10,2013-07-06 12:03:00,
2013-07-06 08:18:00,63.7,62.0,30.19,North,358,2.0,9.0,94,0.00,,,0.29,weatherlink.com 1.10,2013-07-06 12:18:00,
2013-07-06 08:33:00,64.7,62.0,30.20,NW,320,0.0,4.0,91,0.00,,,0.29,weatherlink.com 1.10,2013-07-06 12:33:00,
2013-07-06 08:48:00,64.9,62.0,30.20,West,262,0.0,3.0,89,0.00,,,0.29,weatherlink.com 1.10,2013-07-06 12:48:00,
2013-07-06 09:03:00,65.6,62.0,30.20,SSW,204,2.0,6.0,88,0.00,,,0.29,weatherlink.com 1.10,2013-07-06 13:03:00,
2013-07-06 09:18:00,66.6,61.0,30.20,East,89,0.0,5.0,83,0.00,,,0.29,weatherlink.com 1.10,2013-07-06 13:18:00,
2013-07-06 09:33:00,66.8,62.0,30.20,ESE,116,0.0,9.0,84,0.00,,,0.29,weatherlink.com 1.10,2013-07-06 13:33:00,
2013-07-06 09:48:00,66.7,63.0,30.20,NE,39,0.0,3.0,88,0.00,,,0.29,weatherlink.com 1.10,2013-07-06 13:48:00,
2013-07-06 10:03:00,66.3,62.0,30.20,NE,34,2.0,4.0,87,0.00,,,0.29,weatherlink.com 1.10,2013-07-06 14:03:00,
2013-07-06 10:18:00,66.0,64.0,30.20,NE,51,6.0,6.0,92,0.00,,,0.29,weatherlink.com 1.10,2013-07-06 14:18:00,
2013-07-06 10:33:00,66.1,63.0,30.20,North,359,0.0,3.0,88,0.00,,,0.29,weatherlink.com 1.10,2013-07-06 14:33:00,
2013-07-06 10:48:00,66.3,62.0,30.20,NE,49,2.0,2.0,87,0.00,,,0.29,weatherlink.com 1.10,2013-07-06 14:48:00,
2013-07-06 11:03:00,66.6,63.0,30.20,ENE,71,0.0,2.0,88,0.00,,,0.29,weatherlink.com 1.10,2013-07-06 15:03:00,
2013-07-06 11:18:00,67.4,64.0,30.20,ENE,58,0.0,4.0,88,0.00,,,0.29,weatherlink.com 1.10,2013-07-06 15:18:00,
2013-07-06 11:33:00,67.5,65.0,30.20,East,94,0.0,3.0,90,0.00,,,0.29,weatherlink.com 1.10,2013-07-06 15:33:00,
2013-07-06 11:48:00,67.5,65.0,30.20,West,266,0.0,4.0,91,0.00,,,0.29,weatherlink.com 1.10,2013-07-06 15:48:00,
2013-07-06 12:18:00,70.4,63.0,30.20,SW,223,2.0,5.0,78,0.00,,,0.29,weatherlink.com 1.10,2013-07-06 16:18:00,
2013-07-06 12:33:00,70.0,64.0,30.20,NW,304,1.0,4.0,81,0.00,,,0.29,weatherlink.com 1.10,2013-07-06 16:33:00,
2013-07-06 13:04:00,69.8,63.0,30.19,NNE,18,0.0,5.0,79,0.00,,,0.29,weatherlink.com 1.10,2013-07-06 17:04:00,
2013-07-06 13:18:00,69.4,62.0,30.19,South,186,0.0,4.0,78,0.00,,,0.29,weatherlink.com 1.10,2013-07-06 17:18:00,
2013-07-06 13:33:00,69.9,64.0,30.19,SW,226,0.0,2.0,80,0.00,,,0.29,weatherlink.com 1.10,2013-07-06 17:33:00,
2013-07-06 13:49:00,69.3,64.0,30.19,NW,323,3.0,4.0,82,0.00,,,0.29,weatherlink.com 1.10,2013-07-06 17:49:00,
2013-07-06 14:03:00,69.5,64.0,30.18,NNW,335,0.0,3.0,82,0.00,,,0.29,weatherlink.com 1.10,2013-07-06 18:03:00,
2013-07-06 14:48:00,70.3,65.0,30.16,NNE,24,0.0,2.0,82,0.00,,,0.29,weatherlink.com 1.10,2013-07-06 18:48:00,
2013-07-06 15:04:00,69.7,64.0,30.16,NW,311,1.0,3.0,82,0.00,,,0.29,weatherlink.com 1.10,2013-07-06 19:04:00,
2013-07-06 15:34:00,68.3,64.0,30.16,West,278,0.0,1.0,87,0.00,,,0.29,weatherlink.com 1.10,2013-07-06 19:34:00,
2013-07-06 15:49:00,69.9,64.0,30.16,NW,319,3.0,5.0,82,0.00,,,0.29,weatherlink.com 1.10,2013-07-06 19:49:00,
2013-07-06 16:19:00,71.5,62.0,30.15,NW,304,1.0,3.0,73,0.00,,,0.29,weatherlink.com 1.10,2013-07-06 20:19:00,
2013-07-06 16:49:00,72.7,64.0,30.14,East,79,0.0,6.0,73,0.01,,,0.30,weatherlink.com 1.10,2013-07-06 20:49:00,
2013-07-06 17:49:00,71.7,61.0,30.14,North,4,0.0,4.0,70,0.00,,,0.30,weatherlink.com 1.10,2013-07-06 21:49:00,
2013-07-06 18:19:00,70.9,63.0,30.14,NE,46,0.0,3.0,77,0.00,,,0.30,weatherlink.com 1.10,2013-07-06 22:19:00,
2013-07-06 18:34:00,70.8,63.0,30.14,NE,53,2.0,4.0,75,0.00,,,0.30,weatherlink.com 1.10,2013-07-06 22:34:00,
2013-07-06 19:04:00,68.8,64.0,30.15,WSW,247,0.0,5.0,83,0.01,,,0.31,weatherlink.com 1.10,2013-07-06 23:04:00,
2013-07-06 19:19:00,66.6,64.0,30.15,NNE,20,0.0,5.0,90,0.04,,,0.34,weatherlink.com 1.10,2013-07-06 23:19:00,
2013-07-06 19:34:00,65.8,64.0,30.16,NNE,28,1.0,2.0,93,0.04,,,0.34,weatherlink.com 1.10,2013-07-06 23:34:00,
2013-07-06 20:19:00,64.4,63.0,30.15,NE,40,3.0,3.0,94,0.01,,,0.35,weatherlink.com 1.10,2013-07-07 00:19:00,
2013-07-06 20:34:00,64.5,63.0,30.16,NE,47,1.0,4.0,95,0.03,,,0.37,weatherlink.com 1.10,2013-07-07 00:34:00,
2013-07-06 20:49:00,64.2,63.0,30.15,NE,37,0.0,4.0,96,0.03,,,0.37,weatherlink.com 1.10,2013-07-07 00:49:00,
2013-07-06 21:04:00,64.1,63.0,30.16,NE,37,2.0,3.0,96,0.03,,,0.37,weatherlink.com 1.10,2013-07-07 01:04:00,
2013-07-06 21:34:00,64.0,63.0,30.17,NE,37,0.0,1.0,97,0.13,,,0.50,weatherlink.com 1.10,2013-07-07 01:34:00,
2013-07-06 21:49:00,64.0,63.0,30.17,NE,37,0.0,2.0,97,0.15,,,0.52,weatherlink.com 1.10,2013-07-07 01:49:00,
2013-07-06 22:04:00,63.8,63.0,30.18,NE,44,0.0,7.0,97,0.15,,,0.52,weatherlink.com 1.10,2013-07-07 02:04:00,
2013-07-06 22:34:00,63.1,62.0,30.18,NE,36,3.0,4.0,97,0.02,,,0.52,weatherlink.com 1.10,2013-07-07 02:34:00,
2013-07-06 22:49:00,62.9,62.0,30.18,NE,39,0.0,4.0,97,0.00,,,0.52,weatherlink.com 1.10,2013-07-07 02:49:00,
2013-07-06 23:19:00,62.6,62.0,30.19,NE,34,1.0,2.0,98,0.00,,,0.52,weatherlink.com 1.10,2013-07-07 03:19:00,